JBU621 KMCO-MKJS

Flight info

Callsign JBU621
Flight time 1h 41m
Altitude 37000
Route DDANY3 VALKA DCT EBAYY Q97 TOVAR Y297 URSUS UL780 TASNO UM221 NIBEO DCT ADSEL LENAR7
Aircraft A320/M-SDE3FGHIRWY/LB1

Departure

Time 2026-05-06 14:41
Airport Orlando International Airport (KMCO)

Arrival

Time 2026-05-06 16:22
Airport Sangster International Airport (MKJS)
Time Latitude Longitude Altitude Speed Heading
2026-05-06 14:07 28.41596 -81.31432 94 ft 0 kts 110°
2026-05-06 14:27 28.41597 -81.31437 94 ft 3 kts 109°
2026-05-06 14:28 28.41604 -81.31464 96 ft 3 kts 97°
2026-05-06 14:28 28.41605 -81.31491 93 ft 3 kts 84°
2026-05-06 14:28 28.41600 -81.31518 94 ft 3 kts 66°
2026-05-06 14:28 28.41588 -81.31539 96 ft 3 kts 28°
2026-05-06 14:29 28.41576 -81.31543 92 ft 0 kts 340°
2026-05-06 14:32 28.41587 -81.31548 94 ft 4 kts 340°
2026-05-06 14:32 28.41617 -81.31572 95 ft 7 kts 313°
2026-05-06 14:32 28.41642 -81.31637 95 ft 10 kts 292°
2026-05-06 14:32 28.41669 -81.31711 100 ft 11 kts 294°
2026-05-06 14:33 28.41725 -81.31787 98 ft 15 kts 341°
2026-05-06 14:33 28.41835 -81.31793 98 ft 17 kts 359°
2026-05-06 14:33 28.41958 -81.31794 99 ft 18 kts 359°
2026-05-06 14:33 28.42091 -81.31792 99 ft 20 kts
2026-05-06 14:34 28.42210 -81.31775 99 ft 11 kts 10°
2026-05-06 14:34 28.42263 -81.31724 100 ft 12 kts 75°
2026-05-06 14:34 28.42324 -81.31664 98 ft 15 kts 27°
2026-05-06 14:34 28.42349 -81.31550 97 ft 17 kts 89°
2026-05-06 14:35 28.42350 -81.31405 95 ft 20 kts 90°
2026-05-06 14:35 28.42347 -81.31236 95 ft 22 kts 96°
2026-05-06 14:35 28.42322 -81.31053 94 ft 24 kts 99°
2026-05-06 14:35 28.42321 -81.30866 94 ft 22 kts 85°
2026-05-06 14:36 28.42333 -81.30707 97 ft 20 kts 85°
2026-05-06 14:36 28.42344 -81.30536 96 ft 23 kts 86°
2026-05-06 14:36 28.42353 -81.30343 94 ft 25 kts 87°
2026-05-06 14:36 28.42360 -81.30155 96 ft 18 kts 88°
2026-05-06 14:37 28.42361 -81.30006 94 ft 20 kts 89°
2026-05-06 14:37 28.42362 -81.29898 94 ft 21 kts 90°
2026-05-06 14:37 28.42416 -81.29796 96 ft 16 kts
2026-05-06 14:37 28.42534 -81.29797 95 ft 18 kts 359°
2026-05-06 14:38 28.42620 -81.29713 97 ft 17 kts 38°
2026-05-06 14:38 28.42741 -81.29705 95 ft 18 kts 359°
2026-05-06 14:38 28.42873 -81.29707 97 ft 20 kts 359°
2026-05-06 14:38 28.43015 -81.29710 97 ft 21 kts
2026-05-06 14:39 28.43225 -81.29709 98 ft 24 kts 360°
2026-05-06 14:39 28.43323 -81.29710 97 ft 19 kts 359°
2026-05-06 14:39 28.43459 -81.29712 95 ft 21 kts 359°
2026-05-06 14:39 28.43547 -81.29676 96 ft 10 kts 60°
2026-05-06 14:40 28.43539 -81.29610 98 ft 9 kts 133°
2026-05-06 14:40 28.43478 -81.29587 98 ft 10 kts 180°
2026-05-06 14:40 28.43396 -81.29587 98 ft 20 kts 180°
2026-05-06 14:40 28.43020 -81.29582 100 ft 87 kts 179°
2026-05-06 14:41 28.42228 -81.29574 96 ft 138 kts 179°
2026-05-06 14:41 28.41195 -81.29561 459 ft 148 kts 179°
2026-05-06 14:41 28.40164 -81.29528 942 ft 152 kts 177°
2026-05-06 14:41 28.39084 -81.29453 1463 ft 156 kts 173°
2026-05-06 14:42 28.37978 -81.29124 1745 ft 174 kts 153°
2026-05-06 14:42 28.36920 -81.28320 2001 ft 197 kts 144°
2026-05-06 14:42 28.35724 -81.27344 2243 ft 225 kts 144°
2026-05-06 14:42 28.34397 -81.26184 2564 ft 251 kts 137°
2026-05-06 14:43 28.33175 -81.24775 3456 ft 254 kts 131°
2026-05-06 14:43 28.32046 -81.23215 4381 ft 256 kts 126°
2026-05-06 14:43 28.31019 -81.21517 5076 ft 269 kts 118°
2026-05-06 14:43 28.30407 -81.19536 5759 ft 275 kts 96°
2026-05-06 14:44 28.30223 -81.17352 6515 ft 278 kts 91°
2026-05-06 14:44 28.30138 -81.15119 6882 ft 283 kts 90°
2026-05-06 14:44 28.30049 -81.12893 6979 ft 282 kts 90°
2026-05-06 14:45 28.29787 -81.08478 7000 ft 281 kts 92°
2026-05-06 14:45 28.29624 -81.06253 6997 ft 281 kts 92°
2026-05-06 14:45 28.29450 -81.04049 7207 ft 288 kts 93°
2026-05-06 14:45 28.29264 -81.01789 8100 ft 287 kts 93°
2026-05-06 14:46 28.29072 -80.99511 8928 ft 291 kts 93°
2026-05-06 14:46 28.28881 -80.97236 9655 ft 295 kts 93°
2026-05-06 14:46 28.28682 -80.94884 10263 ft 305 kts 93°
2026-05-06 14:46 28.28476 -80.92395 10453 ft 327 kts 93°
2026-05-06 14:47 28.28257 -80.89727 10589 ft 350 kts 92°
2026-05-06 14:47 28.27969 -80.86950 10896 ft 365 kts 98°
2026-05-06 14:47 28.27232 -80.84164 11434 ft 373 kts 110°
2026-05-06 14:47 28.26232 -80.81421 12003 ft 377 kts 109°
2026-05-06 14:48 28.25232 -80.78654 12585 ft 381 kts 109°
2026-05-06 14:48 28.24229 -80.75858 13175 ft 385 kts 109°
2026-05-06 14:48 28.23208 -80.73028 13750 ft 389 kts 111°
2026-05-06 14:48 28.21838 -80.70343 14255 ft 398 kts 124°
2026-05-06 14:49 28.19936 -80.68028 14715 ft 406 kts 138°
2026-05-06 14:49 28.17569 -80.66235 15173 ft 413 kts 153°
2026-05-06 14:49 28.14930 -80.65089 15640 ft 417 kts 163°
2026-05-06 14:49 28.12088 -80.64118 16156 ft 420 kts 163°
2026-05-06 14:50 28.09278 -80.63155 16631 ft 424 kts 164°
2026-05-06 14:50 28.06482 -80.62196 17112 ft 428 kts 164°
2026-05-06 14:50 28.03586 -80.61202 17597 ft 431 kts 164°
2026-05-06 14:50 28.00742 -80.60222 18072 ft 435 kts 164°
2026-05-06 14:51 27.97835 -80.59215 18538 ft 439 kts 164°
2026-05-06 14:51 27.94903 -80.58199 18970 ft 442 kts 164°
2026-05-06 14:51 27.91950 -80.57180 19424 ft 445 kts 165°
2026-05-06 14:51 27.88977 -80.56133 19881 ft 447 kts 164°
2026-05-06 14:52 27.86007 -80.55047 20333 ft 450 kts 163°
2026-05-06 14:52 27.83020 -80.53931 20807 ft 453 kts 163°
2026-05-06 14:52 27.80018 -80.52801 21245 ft 455 kts 163°
2026-05-06 14:52 27.76999 -80.51667 21678 ft 458 kts 163°
2026-05-06 14:53 27.73961 -80.50532 22097 ft 460 kts 163°
2026-05-06 14:53 27.70940 -80.49403 22489 ft 463 kts 163°
2026-05-06 14:53 27.67883 -80.48219 22881 ft 466 kts 162°
2026-05-06 14:53 27.64806 -80.46991 23271 ft 468 kts 162°
2026-05-06 14:54 27.61730 -80.45751 23634 ft 470 kts 162°
2026-05-06 14:54 27.58639 -80.44505 23948 ft 473 kts 162°
2026-05-06 14:54 27.55533 -80.43259 24231 ft 475 kts 162°
2026-05-06 14:54 27.52447 -80.42029 24514 ft 478 kts 162°
2026-05-06 14:55 27.49293 -80.40777 24794 ft 481 kts 162°
2026-05-06 14:55 27.46124 -80.39523 25068 ft 483 kts 162°
2026-05-06 14:55 27.42939 -80.38267 25345 ft 486 kts 163°
2026-05-06 14:55 27.39727 -80.37004 25601 ft 488 kts 163°
2026-05-06 14:56 27.36508 -80.35741 25870 ft 491 kts 163°
2026-05-06 14:56 27.33273 -80.34467 26140 ft 494 kts 163°
2026-05-06 14:56 27.30017 -80.33184 26409 ft 496 kts 163°
2026-05-06 14:56 27.26753 -80.31897 26675 ft 499 kts 163°
2026-05-06 14:57 27.23466 -80.30602 26939 ft 502 kts 163°
2026-05-06 14:57 27.20164 -80.29302 27203 ft 504 kts 163°
2026-05-06 14:57 27.16882 -80.28011 27462 ft 507 kts 163°
2026-05-06 14:57 27.13546 -80.26699 27709 ft 510 kts 163°
2026-05-06 14:58 27.10178 -80.25376 27975 ft 512 kts 163°
2026-05-06 14:58 27.06815 -80.24055 28360 ft 511 kts 163°
2026-05-06 14:58 27.03460 -80.22737 28743 ft 511 kts 163°
2026-05-06 14:58 27.00099 -80.21418 29113 ft 511 kts 163°
2026-05-06 14:59 26.96738 -80.20102 29485 ft 512 kts 163°
2026-05-06 14:59 26.93371 -80.18787 29881 ft 512 kts 163°
2026-05-06 14:59 26.90007 -80.17476 30257 ft 512 kts 163°
2026-05-06 14:59 26.86676 -80.16177 30602 ft 512 kts 163°
2026-05-06 15:00 26.83309 -80.14861 30928 ft 513 kts 163°
2026-05-06 15:00 26.83169 -80.14806 30943 ft 513 kts 163°
2026-05-06 15:00 26.80937 -80.13931 31166 ft 512 kts 163°
2026-05-06 15:01 26.77576 -80.12615 31565 ft 511 kts 163°
2026-05-06 15:01 26.74224 -80.11305 31978 ft 509 kts 163°
2026-05-06 15:01 26.70882 -80.10003 32426 ft 508 kts 163°
2026-05-06 15:01 26.67552 -80.08708 32845 ft 506 kts 163°
2026-05-06 15:02 26.64226 -80.07417 33265 ft 505 kts 163°
2026-05-06 15:02 26.60917 -80.06130 33693 ft 503 kts 163°
2026-05-06 15:02 26.57612 -80.04845 34125 ft 502 kts 163°
2026-05-06 15:02 26.54322 -80.03564 34475 ft 500 kts 163°
2026-05-06 15:03 26.51046 -80.02288 34798 ft 499 kts 163°
2026-05-06 15:03 26.47773 -80.01016 35123 ft 497 kts 163°
2026-05-06 15:03 26.44496 -79.99748 35436 ft 496 kts 163°
2026-05-06 15:03 26.41287 -79.98504 35736 ft 495 kts 163°
2026-05-06 15:04 26.38030 -79.97242 36032 ft 494 kts 164°
2026-05-06 15:04 26.34785 -79.95985 36321 ft 493 kts 164°
2026-05-06 15:04 26.31544 -79.94733 36601 ft 493 kts 164°
2026-05-06 15:04 26.28309 -79.93484 36877 ft 492 kts 164°
2026-05-06 15:05 26.25071 -79.92234 37078 ft 492 kts 164°
2026-05-06 15:05 26.18549 -79.89720 37119 ft 499 kts 163°
2026-05-06 15:06 26.11976 -79.87182 37117 ft 500 kts 163°
2026-05-06 15:06 26.05400 -79.84638 37118 ft 501 kts 163°
2026-05-06 15:07 25.98852 -79.82119 37123 ft 500 kts 163°
2026-05-06 15:07 25.92256 -79.79590 37129 ft 501 kts 163°
2026-05-06 15:08 25.85658 -79.77053 37116 ft 501 kts 163°
2026-05-06 15:08 25.79059 -79.74521 37121 ft 501 kts 163°
2026-05-06 15:09 25.72503 -79.72016 37119 ft 501 kts 163°
2026-05-06 15:09 25.65895 -79.69499 37124 ft 502 kts 163°
2026-05-06 15:10 25.59283 -79.66978 37129 ft 502 kts 163°
2026-05-06 15:10 25.52676 -79.64446 37126 ft 502 kts 163°
2026-05-06 15:11 25.46107 -79.61934 37134 ft 502 kts 163°
2026-05-06 15:11 25.39500 -79.59413 37134 ft 502 kts 163°
2026-05-06 15:12 25.32886 -79.56904 37136 ft 501 kts 163°
2026-05-06 15:12 25.26327 -79.54419 37113 ft 501 kts 163°
2026-05-06 15:13 25.19720 -79.51908 37130 ft 501 kts 162°
2026-05-06 15:13 25.13117 -79.49406 37136 ft 500 kts 162°
2026-05-06 15:14 25.06531 -79.46907 37134 ft 500 kts 162°
2026-05-06 15:14 24.99984 -79.44432 37131 ft 500 kts 163°
2026-05-06 15:15 24.93394 -79.41949 37129 ft 500 kts 162°
2026-05-06 15:15 24.86801 -79.39461 37128 ft 500 kts 162°
2026-05-06 15:16 24.80208 -79.36977 37132 ft 501 kts 162°
2026-05-06 15:16 24.77571 -79.35985 37125 ft 501 kts 162°
2026-05-06 15:17 24.72277 -79.33993 37127 ft 501 kts 162°
2026-05-06 15:17 24.65682 -79.31513 37131 ft 501 kts 162°
2026-05-06 15:18 24.59123 -79.29049 37122 ft 501 kts 162°
2026-05-06 15:18 24.52524 -79.26571 37127 ft 501 kts 162°
2026-05-06 15:19 24.45911 -79.24095 37125 ft 501 kts 162°
2026-05-06 15:19 24.39300 -79.21628 37129 ft 501 kts 162°
2026-05-06 15:20 24.32738 -79.19177 37126 ft 501 kts 162°
2026-05-06 15:20 24.26135 -79.16720 37126 ft 501 kts 162°
2026-05-06 15:21 24.19523 -79.14253 37133 ft 501 kts 162°
2026-05-06 15:21 24.12907 -79.11777 37134 ft 501 kts 162°
2026-05-06 15:22 24.06299 -79.09315 37127 ft 501 kts 162°
2026-05-06 15:22 23.99622 -79.07328 37123 ft 498 kts 175°
2026-05-06 15:23 23.92738 -79.07156 37121 ft 494 kts 184°
2026-05-06 15:23 23.85862 -79.07312 37122 ft 495 kts 184°
2026-05-06 15:24 23.78969 -79.07453 37121 ft 495 kts 184°
2026-05-06 15:24 23.72079 -79.07603 37126 ft 495 kts 184°
2026-05-06 15:25 23.65238 -79.07759 37116 ft 495 kts 184°
2026-05-06 15:25 23.58341 -79.07918 37121 ft 495 kts 184°
2026-05-06 15:26 23.51461 -79.08069 37126 ft 495 kts 184°
2026-05-06 15:26 23.44576 -79.08218 37124 ft 495 kts 184°
2026-05-06 15:27 23.38859 -79.08345 37124 ft 495 kts 184°
2026-05-06 15:27 23.31970 -79.08496 37118 ft 494 kts 184°
2026-05-06 15:28 23.25079 -79.08645 37125 ft 494 kts 184°
2026-05-06 15:28 23.18198 -79.08798 37125 ft 494 kts 184°
2026-05-06 15:29 23.11330 -79.08958 37120 ft 494 kts 184°
2026-05-06 15:29 23.04505 -79.09110 37110 ft 494 kts 184°
2026-05-06 15:30 22.97636 -79.09258 37119 ft 493 kts 183°
2026-05-06 15:30 22.90775 -79.09408 37123 ft 493 kts 183°
2026-05-06 15:31 22.83910 -79.09558 37126 ft 493 kts 183°
2026-05-06 15:31 22.77054 -79.09715 37126 ft 492 kts 183°
2026-05-06 15:32 22.66784 -79.09945 37119 ft 492 kts 183°
2026-05-06 15:32 22.59936 -79.10093 37121 ft 492 kts 183°
2026-05-06 15:33 22.53130 -79.10231 37124 ft 492 kts 183°
2026-05-06 15:33 22.46286 -79.10384 37121 ft 492 kts 183°
2026-05-06 15:34 22.39444 -79.10538 37110 ft 491 kts 183°
2026-05-06 15:34 22.32603 -79.10684 37117 ft 491 kts 183°
2026-05-06 15:35 22.25754 -79.10830 37119 ft 491 kts 183°
2026-05-06 15:35 22.18970 -79.10977 37117 ft 491 kts 183°
2026-05-06 15:36 22.12139 -79.10876 37116 ft 492 kts 173°
2026-05-06 15:36 22.05409 -79.09457 37102 ft 493 kts 169°
2026-05-06 15:37 21.98697 -79.07963 37112 ft 492 kts 169°
2026-05-06 15:37 21.91974 -79.06482 37108 ft 492 kts 169°
2026-05-06 15:38 21.87240 -79.05439 37112 ft 492 kts 169°
2026-05-06 15:38 21.82564 -79.04402 37108 ft 492 kts 169°
2026-05-06 15:39 21.75853 -79.02915 37094 ft 493 kts 169°
2026-05-06 15:39 21.69133 -79.01428 37101 ft 493 kts 168°
2026-05-06 15:40 21.62407 -78.99939 37107 ft 493 kts 169°
2026-05-06 15:40 21.55685 -78.98463 37109 ft 493 kts 169°
2026-05-06 15:41 21.48959 -78.96992 37109 ft 493 kts 169°
2026-05-06 15:41 21.42265 -78.95519 37100 ft 493 kts 168°
2026-05-06 15:42 21.35554 -78.94041 37103 ft 492 kts 168°
2026-05-06 15:42 21.28827 -78.92560 37105 ft 492 kts 168°
2026-05-06 15:43 21.22114 -78.91088 37107 ft 492 kts 168°
2026-05-06 15:43 21.15412 -78.89624 37109 ft 492 kts 168°
2026-05-06 15:44 21.08747 -78.88161 37110 ft 492 kts 168°
2026-05-06 15:44 21.02032 -78.86683 37111 ft 492 kts 168°
2026-05-06 15:45 20.95311 -78.85211 37110 ft 492 kts 168°
2026-05-06 15:45 20.88641 -78.83761 37107 ft 492 kts 168°
2026-05-06 15:46 20.81932 -78.82301 37105 ft 491 kts 168°
2026-05-06 15:46 20.75235 -78.80842 37098 ft 491 kts 168°
2026-05-06 15:47 20.68537 -78.79389 37107 ft 491 kts 168°
2026-05-06 15:47 20.61846 -78.77938 37110 ft 491 kts 168°
2026-05-06 15:48 20.55151 -78.76484 37109 ft 491 kts 168°
2026-05-06 15:48 20.48463 -78.75026 37109 ft 491 kts 168°
2026-05-06 15:49 20.41803 -78.73578 37102 ft 491 kts 168°
2026-05-06 15:49 20.35073 -78.72126 37105 ft 490 kts 168°
2026-05-06 15:50 20.28417 -78.70686 37108 ft 490 kts 168°
2026-05-06 15:50 20.21732 -78.69234 37108 ft 490 kts 168°
2026-05-06 15:51 20.15046 -78.67789 37109 ft 490 kts 168°
2026-05-06 15:51 20.08354 -78.66343 37090 ft 490 kts 168°
2026-05-06 15:52 20.01701 -78.64910 37098 ft 490 kts 168°
2026-05-06 15:52 19.95001 -78.63491 37098 ft 490 kts 168°
2026-05-06 15:53 19.88290 -78.62144 36799 ft 490 kts 169°
2026-05-06 15:53 19.84940 -78.61483 36550 ft 490 kts 169°
2026-05-06 15:53 19.81586 -78.60819 36304 ft 490 kts 169°
2026-05-06 15:54 19.78233 -78.60149 36063 ft 490 kts 169°
2026-05-06 15:54 19.74876 -78.59476 35466 ft 492 kts 168°
2026-05-06 15:54 19.71492 -78.58791 34587 ft 497 kts 168°
2026-05-06 15:54 19.68118 -78.58109 33645 ft 502 kts 168°
2026-05-06 15:55 19.64623 -78.57399 32584 ft 506 kts 169°
2026-05-06 15:55 19.61210 -78.56705 31592 ft 507 kts 169°
2026-05-06 15:55 19.57742 -78.56004 30586 ft 508 kts 169°
2026-05-06 15:55 19.54255 -78.55302 29609 ft 506 kts 169°
2026-05-06 15:56 19.50791 -78.54610 28374 ft 508 kts 169°
2026-05-06 15:56 19.47311 -78.53915 27331 ft 508 kts 169°
2026-05-06 15:56 19.43857 -78.53221 26541 ft 502 kts 169°
2026-05-06 15:56 19.40430 -78.52529 25778 ft 498 kts 169°
2026-05-06 15:57 19.37038 -78.51846 25029 ft 494 kts 169°
2026-05-06 15:57 19.33723 -78.51181 24287 ft 490 kts 169°
2026-05-06 15:57 19.30384 -78.50517 23523 ft 487 kts 169°
2026-05-06 15:57 19.27060 -78.49854 22725 ft 483 kts 169°
2026-05-06 15:58 19.23782 -78.49199 22003 ft 477 kts 169°
2026-05-06 15:58 19.20543 -78.48552 21296 ft 471 kts 169°
2026-05-06 15:58 19.17335 -78.47909 20615 ft 465 kts 169°
2026-05-06 15:58 19.14175 -78.47274 19956 ft 459 kts 169°
2026-05-06 15:59 19.11054 -78.46645 19327 ft 453 kts 169°
2026-05-06 15:59 19.07971 -78.46023 18717 ft 448 kts 169°
2026-05-06 15:59 19.04922 -78.45411 18081 ft 442 kts 170°
2026-05-06 15:59 19.01914 -78.44810 17459 ft 437 kts 170°
2026-05-06 16:00 18.98993 -78.44178 16870 ft 432 kts 165°
2026-05-06 16:00 18.96190 -78.43067 16284 ft 428 kts 154°
2026-05-06 16:00 18.93674 -78.41412 15684 ft 426 kts 142°
2026-05-06 16:00 18.91517 -78.39284 15073 ft 424 kts 133°
2026-05-06 16:01 18.89526 -78.36999 14527 ft 420 kts 133°
2026-05-06 16:01 18.87553 -78.34748 13878 ft 418 kts 133°
2026-05-06 16:01 18.85585 -78.32514 13387 ft 410 kts 133°
2026-05-06 16:01 18.83651 -78.30323 12727 ft 406 kts 134°
2026-05-06 16:02 18.81739 -78.28160 11980 ft 397 kts 134°
2026-05-06 16:02 18.79756 -78.26277 11310 ft 377 kts 147°
2026-05-06 16:02 18.77527 -78.25064 11138 ft 346 kts 158°
2026-05-06 16:02 18.75391 -78.24125 11014 ft 319 kts 158°
2026-05-06 16:03 18.73390 -78.23248 10634 ft 306 kts 158°
2026-05-06 16:03 18.71439 -78.22396 10097 ft 301 kts 158°
2026-05-06 16:03 18.69529 -78.21567 9753 ft 290 kts 158°
2026-05-06 16:03 18.67649 -78.20754 9514 ft 293 kts 158°
2026-05-06 16:04 18.65764 -78.19941 9061 ft 292 kts 158°
2026-05-06 16:04 18.63874 -78.19126 8616 ft 294 kts 157°
2026-05-06 16:04 18.61974 -78.18307 8181 ft 295 kts 158°
2026-05-06 16:04 18.60068 -78.17489 7744 ft 296 kts 158°
2026-05-06 16:05 18.58155 -78.16669 7316 ft 297 kts 157°
2026-05-06 16:05 18.56242 -78.15847 6895 ft 297 kts 157°
2026-05-06 16:05 18.54326 -78.15023 6479 ft 297 kts 157°
2026-05-06 16:05 18.52413 -78.14200 6036 ft 297 kts 157°
2026-05-06 16:06 18.50503 -78.13380 5594 ft 296 kts 157°
2026-05-06 16:06 18.48616 -78.12570 5163 ft 296 kts 157°
2026-05-06 16:06 18.46715 -78.11746 4728 ft 295 kts 154°
2026-05-06 16:06 18.45051 -78.10516 4280 ft 293 kts 133°
2026-05-06 16:07 18.44011 -78.08699 3840 ft 292 kts 108°
2026-05-06 16:07 18.43872 -78.06584 3405 ft 294 kts 80°
2026-05-06 16:07 18.44645 -78.04597 2976 ft 294 kts 61°
2026-05-06 16:07 18.45584 -78.02726 2526 ft 284 kts 65°
2026-05-06 16:08 18.46379 -78.00893 2308 ft 265 kts 67°
2026-05-06 16:08 18.47073 -77.99205 2300 ft 238 kts 68°
2026-05-06 16:08 18.47687 -77.97701 2177 ft 212 kts 67°
2026-05-06 16:08 18.48267 -77.96304 1661 ft 207 kts 67°
2026-05-06 16:09 18.48853 -77.94929 1054 ft 203 kts 67°
2026-05-06 16:09 18.49408 -77.93626 482 ft 190 kts 68°
2026-05-06 16:09 18.49892 -77.92417 67 ft 168 kts 67°
2026-05-06 16:09 18.50335 -77.91411 343 ft 150 kts 64°
2026-05-06 16:10 18.50813 -77.90412 927 ft 155 kts 65°
2026-05-06 16:10 18.51338 -77.89367 1678 ft 172 kts 64°
2026-05-06 16:10 18.52034 -77.88217 2202 ft 202 kts 45°
2026-05-06 16:10 18.53353 -77.87611 2292 ft 218 kts
2026-05-06 16:11 18.54838 -77.88012 2309 ft 224 kts 339°
2026-05-06 16:11 18.56261 -77.88706 2311 ft 226 kts 335°
2026-05-06 16:11 18.57668 -77.89449 2311 ft 227 kts 334°
2026-05-06 16:11 18.59077 -77.90197 2330 ft 229 kts 335°
2026-05-06 16:12 18.60515 -77.90953 3039 ft 230 kts 335°
2026-05-06 16:12 18.61951 -77.91703 3816 ft 231 kts 333°
2026-05-06 16:12 18.63187 -77.92791 4516 ft 235 kts 304°
2026-05-06 16:12 18.63816 -77.94382 4924 ft 237 kts 274°
2026-05-06 16:13 18.63619 -77.96064 5006 ft 230 kts 244°
2026-05-06 16:13 18.62836 -77.97529 5015 ft 230 kts 236°
2026-05-06 16:13 18.62013 -77.98978 5015 ft 230 kts 236°
2026-05-06 16:13 18.61196 -78.00430 5008 ft 231 kts 236°
2026-05-06 16:14 18.60383 -78.01886 5012 ft 231 kts 236°
2026-05-06 16:14 18.59846 -78.02852 5012 ft 230 kts 237°
2026-05-06 16:14 18.59038 -78.04311 5009 ft 230 kts 237°
2026-05-06 16:14 18.58232 -78.05765 5015 ft 230 kts 236°
2026-05-06 16:15 18.57163 -78.07694 5014 ft 230 kts 237°
2026-05-06 16:15 18.56355 -78.09151 5016 ft 230 kts 237°
2026-05-06 16:15 18.55810 -78.10135 5013 ft 230 kts 237°
2026-05-06 16:15 18.55009 -78.11575 5012 ft 230 kts 237°
2026-05-06 16:16 18.54199 -78.13030 5016 ft 230 kts 237°
2026-05-06 16:16 18.53340 -78.14445 5015 ft 227 kts 224°
2026-05-06 16:16 18.52068 -78.15361 5011 ft 221 kts 195°
2026-05-06 16:16 18.50570 -78.15532 4966 ft 215 kts 169°
2026-05-06 16:17 18.49174 -78.15035 4670 ft 212 kts 154°
2026-05-06 16:17 18.47828 -78.14391 4353 ft 212 kts 154°
2026-05-06 16:17 18.46483 -78.13752 4047 ft 212 kts 154°
2026-05-06 16:17 18.45146 -78.13116 3789 ft 213 kts 154°
2026-05-06 16:18 18.43805 -78.12469 3537 ft 211 kts 150°
2026-05-06 16:18 18.42747 -78.11445 3239 ft 208 kts 117°
2026-05-06 16:18 18.42424 -78.09987 2907 ft 207 kts 85°
2026-05-06 16:18 18.42857 -78.08572 2598 ft 203 kts 67°
2026-05-06 16:19 18.43450 -78.07220 2321 ft 203 kts 66°
2026-05-06 16:19 18.44044 -78.05869 2298 ft 204 kts 66°
2026-05-06 16:19 18.44643 -78.04509 2307 ft 204 kts 66°
2026-05-06 16:19 18.45240 -78.03145 2310 ft 205 kts 66°
2026-05-06 16:20 18.45839 -78.01778 2306 ft 205 kts 66°
2026-05-06 16:20 18.46432 -78.00419 2220 ft 201 kts 66°
2026-05-06 16:20 18.47009 -77.99096 1682 ft 197 kts 66°
2026-05-06 16:20 18.47563 -77.97821 1299 ft 188 kts 66°
2026-05-06 16:21 18.48101 -77.96568 992 ft 187 kts 66°
2026-05-06 16:21 18.48635 -77.95325 642 ft 183 kts 66°
2026-05-06 16:21 18.49158 -77.94129 570 ft 177 kts 64°
2026-05-06 16:21 18.49664 -77.92980 378 ft 172 kts 65°
2026-05-06 16:22 18.50139 -77.91830 16 ft 161 kts 72°
2026-05-06 16:22 18.50494 -77.90888 13 ft 76 kts 68°
2026-05-06 16:22 18.50537 -77.90781 14 ft 0 kts 66°